WJA714 CYYT-CYQB

Flight info

Callsign WJA714
Flight time 1h 49m
Altitude 34000
Route CADIL DCT USBAM DCT MIVAX DCT SIMTO SIMTO4
Aircraft B38M/M-SDE1FGHILORVWXY/HB1

Departure

Time 2026-04-27 03:20
Airport St. John's International Airport (CYYT)

Arrival

Time 2026-04-27 05:09
Airport Quebec Jean Lesage International Airport (CYQB)
Time Latitude Longitude Altitude Speed Heading
2026-04-27 02:56 47.61274 -52.74073 451 ft 0 kts 268°
2026-04-27 03:14 47.61275 -52.74058 451 ft 4 kts 268°
2026-04-27 03:14 47.61276 -52.74018 451 ft 4 kts 267°
2026-04-27 03:15 47.61279 -52.73980 451 ft 4 kts 244°
2026-04-27 03:15 47.61296 -52.73959 451 ft 4 kts 191°
2026-04-27 03:15 47.61313 -52.73955 451 ft 1 kts 188°
2026-04-27 03:15 47.61316 -52.73954 451 ft 0 kts 188°
2026-04-27 03:18 47.61300 -52.73951 451 ft 5 kts 161°
2026-04-27 03:18 47.61261 -52.73879 449 ft 14 kts 113°
2026-04-27 03:18 47.61204 -52.73713 430 ft 20 kts 119°
2026-04-27 03:18 47.61130 -52.73510 422 ft 21 kts 118°
2026-04-27 03:19 47.61120 -52.73405 419 ft 11 kts 66°
2026-04-27 03:19 47.61186 -52.73389 426 ft 9 kts 322°
2026-04-27 03:19 47.61247 -52.73465 419 ft 25 kts 319°
2026-04-27 03:19 47.61594 -52.73911 430 ft 104 kts 319°
2026-04-27 03:20 47.62297 -52.74789 631 ft 147 kts 324°
2026-04-27 03:20 47.63078 -52.75790 1618 ft 150 kts 325°
2026-04-27 03:20 47.63847 -52.76773 2750 ft 149 kts 326°
2026-04-27 03:20 47.64693 -52.77847 3228 ft 172 kts 326°
2026-04-27 03:21 47.65682 -52.79102 3681 ft 200 kts 323°
2026-04-27 03:21 47.66593 -52.80850 4253 ft 232 kts 303°
2026-04-27 03:21 47.66960 -52.83307 5142 ft 255 kts 282°
2026-04-27 03:21 47.67030 -52.85961 6046 ft 260 kts 283°
2026-04-27 03:22 47.67131 -52.88665 6968 ft 264 kts 283°
2026-04-27 03:22 47.67238 -52.91396 7869 ft 267 kts 282°
2026-04-27 03:22 47.67349 -52.94164 8764 ft 270 kts 282°
2026-04-27 03:22 47.67462 -52.96960 9690 ft 273 kts 282°
2026-04-27 03:23 47.67577 -52.99805 10437 ft 282 kts 282°
2026-04-27 03:23 47.67704 -53.02797 10828 ft 301 kts 281°
2026-04-27 03:23 47.67843 -53.06004 11154 ft 322 kts 281°
2026-04-27 03:23 47.67988 -53.09405 11575 ft 337 kts 280°
2026-04-27 03:24 47.68134 -53.12941 12055 ft 349 kts 279°
2026-04-27 03:24 47.68280 -53.16563 12743 ft 354 kts 279°
2026-04-27 03:24 47.68422 -53.20226 13474 ft 358 kts 279°
2026-04-27 03:24 47.68566 -53.23932 14152 ft 362 kts 279°
2026-04-27 03:25 47.68707 -53.27638 14784 ft 366 kts 279°
2026-04-27 03:25 47.68851 -53.31428 15424 ft 370 kts 279°
2026-04-27 03:25 47.68995 -53.35269 16050 ft 374 kts 279°
2026-04-27 03:25 47.69139 -53.39145 16677 ft 378 kts 279°
2026-04-27 03:26 47.69283 -53.43072 17299 ft 382 kts 279°
2026-04-27 03:26 47.69427 -53.47031 17895 ft 387 kts 279°
2026-04-27 03:26 47.69572 -53.51037 18471 ft 391 kts 279°
2026-04-27 03:26 47.69717 -53.55093 18961 ft 395 kts 279°
2026-04-27 03:27 47.69862 -53.59186 19448 ft 399 kts 279°
2026-04-27 03:27 47.70007 -53.63322 19931 ft 403 kts 280°
2026-04-27 03:27 47.70152 -53.67501 20394 ft 407 kts 280°
2026-04-27 03:27 47.70296 -53.71722 20870 ft 412 kts 280°
2026-04-27 03:28 47.70441 -53.75992 21330 ft 415 kts 280°
2026-04-27 03:28 47.70583 -53.80237 21787 ft 419 kts 280°
2026-04-27 03:28 47.70727 -53.84586 22246 ft 424 kts 280°
2026-04-27 03:28 47.70871 -53.88974 22732 ft 428 kts 281°
2026-04-27 03:29 47.71014 -53.93406 23185 ft 432 kts 281°
2026-04-27 03:29 47.71157 -53.97882 23629 ft 436 kts 281°
2026-04-27 03:29 47.71300 -54.02400 24010 ft 440 kts 281°
2026-04-27 03:29 47.71442 -54.06957 24404 ft 444 kts 281°
2026-04-27 03:30 47.71583 -54.11551 24781 ft 447 kts 281°
2026-04-27 03:30 47.71723 -54.16179 25180 ft 451 kts 281°
2026-04-27 03:30 47.71863 -54.20845 25565 ft 454 kts 281°
2026-04-27 03:30 47.72002 -54.25553 25960 ft 458 kts 281°
2026-04-27 03:31 47.72140 -54.30294 26350 ft 462 kts 281°
2026-04-27 03:31 47.72278 -54.35082 26730 ft 465 kts 281°
2026-04-27 03:31 47.72414 -54.39896 27098 ft 468 kts 281°
2026-04-27 03:31 47.72549 -54.44747 27473 ft 472 kts 281°
2026-04-27 03:32 47.72683 -54.49634 27833 ft 475 kts 281°
2026-04-27 03:32 47.72817 -54.54575 28183 ft 479 kts 281°
2026-04-27 03:32 47.72949 -54.59538 28509 ft 482 kts 281°
2026-04-27 03:32 47.73080 -54.64526 28902 ft 484 kts 281°
2026-04-27 03:33 47.73208 -54.69538 29271 ft 487 kts 281°
2026-04-27 03:33 47.73336 -54.74586 29596 ft 491 kts 281°
2026-04-27 03:33 47.73461 -54.79618 29920 ft 494 kts 281°
2026-04-27 03:33 47.73586 -54.84731 30234 ft 497 kts 281°
2026-04-27 03:34 47.73709 -54.89874 30536 ft 499 kts 280°
2026-04-27 03:34 47.73829 -54.95037 30919 ft 499 kts 280°
2026-04-27 03:34 47.73946 -55.00192 31310 ft 499 kts 280°
2026-04-27 03:34 47.74061 -55.05349 31713 ft 499 kts 280°
2026-04-27 03:35 47.74174 -55.10504 32044 ft 498 kts 279°
2026-04-27 03:35 47.74283 -55.15585 32458 ft 498 kts 279°
2026-04-27 03:35 47.74391 -55.20720 32845 ft 497 kts 279°
2026-04-27 03:35 47.74498 -55.25921 33232 ft 497 kts 279°
2026-04-27 03:36 47.74599 -55.30998 33549 ft 498 kts 279°
2026-04-27 03:36 47.74701 -55.36151 33875 ft 499 kts 279°
2026-04-27 03:36 47.74801 -55.41313 34079 ft 501 kts 279°
2026-04-27 03:37 47.74995 -55.51625 34051 ft 498 kts 279°
2026-04-27 03:37 47.75178 -55.61922 34023 ft 498 kts 279°
2026-04-27 03:38 47.75354 -55.72219 34060 ft 499 kts 278°
2026-04-27 03:38 47.75520 -55.82531 34058 ft 499 kts 278°
2026-04-27 03:39 47.75675 -55.92778 34060 ft 499 kts 278°
2026-04-27 03:39 47.75823 -56.03087 34056 ft 499 kts 278°
2026-04-27 03:40 47.75962 -56.13410 34049 ft 500 kts 277°
2026-04-27 03:40 47.76091 -56.23771 34072 ft 501 kts 277°
2026-04-27 03:41 47.76211 -56.34109 34102 ft 500 kts 277°
2026-04-27 03:41 47.76322 -56.44396 34091 ft 501 kts 277°
2026-04-27 03:42 47.76423 -56.54739 34122 ft 501 kts 277°
2026-04-27 03:42 47.76516 -56.65100 34125 ft 501 kts 276°
2026-04-27 03:43 47.76599 -56.75448 34141 ft 501 kts 276°
2026-04-27 03:43 47.76673 -56.85810 34122 ft 501 kts 276°
2026-04-27 03:44 47.76737 -56.96168 34174 ft 502 kts 275°
2026-04-27 03:44 47.76792 -57.06533 34170 ft 501 kts 275°
2026-04-27 03:45 47.76838 -57.16900 34185 ft 501 kts 275°
2026-04-27 03:45 47.76875 -57.27260 34189 ft 501 kts 275°
2026-04-27 03:46 47.76902 -57.37554 34198 ft 501 kts 275°
2026-04-27 03:46 47.76920 -57.47916 34200 ft 501 kts 275°
2026-04-27 03:47 47.76928 -57.58277 34176 ft 501 kts 274°
2026-04-27 03:47 47.76927 -57.68625 34193 ft 501 kts 273°
2026-04-27 03:48 47.76917 -57.78984 34211 ft 501 kts 273°
2026-04-27 03:48 47.76898 -57.89270 34216 ft 501 kts 273°
2026-04-27 03:49 47.76870 -57.99641 34216 ft 501 kts 273°
2026-04-27 03:49 47.76832 -58.09984 34199 ft 500 kts 272°
2026-04-27 03:50 47.76785 -58.20312 34220 ft 499 kts 272°
2026-04-27 03:50 47.76729 -58.30638 34231 ft 499 kts 272°
2026-04-27 03:51 47.76663 -58.40892 34230 ft 499 kts 272°
2026-04-27 03:51 47.76589 -58.51205 34241 ft 499 kts 272°
2026-04-27 03:52 47.76505 -58.61524 34236 ft 499 kts 272°
2026-04-27 03:52 47.76410 -58.71842 34245 ft 499 kts 272°
2026-04-27 03:53 47.76309 -58.82169 34247 ft 499 kts 271°
2026-04-27 03:53 47.76197 -58.92484 34248 ft 499 kts 271°
2026-04-27 03:54 47.76076 -59.02809 34246 ft 499 kts 271°
2026-04-27 03:54 47.75946 -59.13119 34240 ft 498 kts 271°
2026-04-27 03:55 47.75808 -59.23348 34235 ft 498 kts 271°
2026-04-27 03:55 47.75659 -59.33652 34251 ft 498 kts 271°
2026-04-27 03:56 47.75501 -59.43949 34253 ft 498 kts 271°
2026-04-27 03:56 47.75335 -59.54237 34251 ft 498 kts 270°
2026-04-27 03:57 47.75159 -59.64535 34249 ft 497 kts 270°
2026-04-27 03:57 47.74974 -59.74793 34262 ft 496 kts 270°
2026-04-27 03:58 47.74781 -59.85036 34262 ft 496 kts 270°
2026-04-27 03:58 47.74578 -59.95284 34261 ft 496 kts 270°
2026-04-27 03:59 47.74367 -60.05486 34268 ft 497 kts 270°
2026-04-27 03:59 47.74146 -60.15742 34268 ft 495 kts 269°
2026-04-27 04:00 47.73917 -60.25969 34270 ft 495 kts 269°
2026-04-27 04:00 47.73678 -60.36204 34279 ft 495 kts 269°
2026-04-27 04:01 47.73420 -60.46439 34280 ft 495 kts 269°
2026-04-27 04:01 47.73148 -60.56664 34263 ft 495 kts 269°
2026-04-27 04:02 47.72915 -60.65146 34277 ft 493 kts 268°
2026-04-27 04:02 47.72580 -60.76979 34281 ft 493 kts 268°
2026-04-27 04:03 47.72333 -60.85442 34287 ft 494 kts 268°
2026-04-27 04:03 47.72027 -60.95627 34290 ft 493 kts 268°
2026-04-27 04:04 47.71712 -61.05814 34287 ft 493 kts 268°
2026-04-27 04:04 47.71389 -61.15976 34290 ft 491 kts 267°
2026-04-27 04:05 47.71057 -61.26132 34287 ft 491 kts 267°
2026-04-27 04:05 47.70719 -61.36196 34284 ft 491 kts 267°
2026-04-27 04:06 47.70369 -61.46350 34287 ft 491 kts 267°
2026-04-27 04:06 47.70011 -61.56475 34282 ft 491 kts 266°
2026-04-27 04:07 47.69458 -61.71668 34289 ft 491 kts 266°
2026-04-27 04:07 47.69078 -61.81795 34289 ft 491 kts 266°
2026-04-27 04:08 47.68691 -61.91852 34294 ft 491 kts 266°
2026-04-27 04:08 47.68294 -62.01962 34294 ft 491 kts 266°
2026-04-27 04:09 47.67887 -62.12074 34300 ft 491 kts 265°
2026-04-27 04:09 47.67471 -62.22201 34303 ft 491 kts 265°
2026-04-27 04:10 47.67047 -62.32317 34308 ft 491 kts 265°
2026-04-27 04:10 47.66616 -62.42377 34302 ft 491 kts 265°
2026-04-27 04:11 47.66173 -62.52489 34305 ft 491 kts 265°
2026-04-27 04:11 47.65722 -62.62601 34304 ft 490 kts 265°
2026-04-27 04:12 47.65263 -62.72681 34305 ft 489 kts 265°
2026-04-27 04:12 47.64799 -62.82696 34306 ft 489 kts 265°
2026-04-27 04:13 47.64323 -62.92763 34311 ft 489 kts 265°
2026-04-27 04:13 47.63841 -63.02836 34308 ft 489 kts 264°
2026-04-27 04:14 47.63351 -63.12891 34303 ft 489 kts 264°
2026-04-27 04:14 47.63025 -63.22972 34302 ft 491 kts 270°
2026-04-27 04:15 47.63114 -63.33100 34304 ft 491 kts 269°
2026-04-27 04:15 47.63133 -63.43226 34305 ft 491 kts 269°
2026-04-27 04:16 47.63136 -63.53348 34306 ft 491 kts 268°
2026-04-27 04:16 47.63131 -63.63406 34307 ft 491 kts 268°
2026-04-27 04:17 47.63116 -63.73531 34306 ft 491 kts 268°
2026-04-27 04:17 47.63093 -63.83656 34303 ft 491 kts 268°
2026-04-27 04:18 47.63060 -63.93796 34300 ft 491 kts 268°
2026-04-27 04:18 47.63019 -64.03913 34313 ft 492 kts 268°
2026-04-27 04:19 47.62969 -64.14007 34307 ft 494 kts 268°
2026-04-27 04:19 47.62909 -64.24188 34303 ft 493 kts 268°
2026-04-27 04:20 47.62841 -64.34375 34307 ft 493 kts 268°
2026-04-27 04:20 47.62763 -64.44555 34305 ft 493 kts 268°
2026-04-27 04:21 47.62677 -64.54719 34305 ft 493 kts 267°
2026-04-27 04:21 47.62582 -64.64889 34314 ft 493 kts 267°
2026-04-27 04:22 47.62478 -64.74976 34313 ft 493 kts 267°
2026-04-27 04:22 47.62365 -64.85140 34315 ft 493 kts 267°
2026-04-27 04:23 47.62243 -64.95303 34320 ft 493 kts 266°
2026-04-27 04:23 47.62111 -65.05461 34314 ft 493 kts 266°
2026-04-27 04:24 47.61971 -65.15641 34316 ft 493 kts 266°
2026-04-27 04:24 47.61822 -65.25796 34317 ft 493 kts 266°
2026-04-27 04:25 47.61665 -65.35889 34320 ft 493 kts 266°
2026-04-27 04:25 47.61498 -65.46049 34323 ft 492 kts 265°
2026-04-27 04:26 47.61322 -65.56187 34322 ft 492 kts 265°
2026-04-27 04:26 47.61138 -65.66334 34321 ft 492 kts 265°
2026-04-27 04:27 47.60944 -65.76482 34319 ft 492 kts 265°
2026-04-27 04:27 47.60743 -65.86554 34320 ft 492 kts 265°
2026-04-27 04:28 47.60532 -65.96679 34321 ft 492 kts 265°
2026-04-27 04:28 47.60311 -66.06823 34313 ft 492 kts 265°
2026-04-27 04:29 47.60082 -66.16964 34307 ft 492 kts 265°
2026-04-27 04:29 47.59844 -66.27098 34290 ft 492 kts 264°
2026-04-27 04:30 47.59597 -66.37244 34299 ft 491 kts 264°
2026-04-27 04:30 47.59342 -66.47345 34290 ft 490 kts 264°
2026-04-27 04:31 47.59078 -66.57447 34287 ft 490 kts 264°
2026-04-27 04:31 47.58806 -66.67485 34277 ft 490 kts 264°
2026-04-27 04:32 47.58525 -66.77568 34275 ft 490 kts 264°
2026-04-27 04:32 47.58235 -66.87656 34278 ft 489 kts 264°
2026-04-27 04:33 47.57936 -66.97711 34272 ft 489 kts 264°
2026-04-27 04:33 47.57628 -67.07807 34270 ft 489 kts 264°
2026-04-27 04:34 47.57314 -67.17815 34270 ft 489 kts 264°
2026-04-27 04:34 47.56989 -67.27881 34268 ft 489 kts 264°
2026-04-27 04:35 47.56656 -67.37930 34267 ft 487 kts 263°
2026-04-27 04:35 47.56316 -67.47895 34268 ft 487 kts 263°
2026-04-27 04:36 47.55966 -67.57923 34274 ft 487 kts 263°
2026-04-27 04:36 47.55608 -67.67943 34269 ft 487 kts 263°
2026-04-27 04:37 47.55243 -67.77897 34289 ft 486 kts 263°
2026-04-27 04:37 47.54869 -67.87861 34277 ft 485 kts 263°
2026-04-27 04:38 47.54486 -67.97836 34274 ft 485 kts 263°
2026-04-27 04:38 47.54094 -68.07812 34271 ft 485 kts 263°
2026-04-27 04:39 47.53694 -68.17778 34266 ft 485 kts 263°
2026-04-27 04:39 47.53285 -68.27742 34264 ft 485 kts 263°
2026-04-27 04:40 47.52868 -68.37698 34267 ft 485 kts 263°
2026-04-27 04:40 47.52445 -68.47590 34270 ft 485 kts 263°
2026-04-27 04:41 47.52010 -68.57545 34269 ft 484 kts 263°
2026-04-27 04:41 47.51568 -68.67486 34291 ft 483 kts 263°
2026-04-27 04:42 47.51120 -68.77350 34270 ft 479 kts 263°
2026-04-27 04:42 47.50666 -68.87184 34259 ft 479 kts 263°
2026-04-27 04:43 47.50202 -68.97028 34257 ft 479 kts 263°
2026-04-27 04:43 47.49729 -69.06875 34256 ft 479 kts 263°
2026-04-27 04:44 47.49253 -69.16643 34261 ft 478 kts 263°
2026-04-27 04:44 47.48766 -69.26437 34258 ft 477 kts 262°
2026-04-27 04:45 47.48271 -69.36227 34257 ft 477 kts 262°
2026-04-27 04:45 47.47769 -69.46010 34255 ft 477 kts 262°
2026-04-27 04:46 47.47261 -69.55796 34257 ft 477 kts 262°
2026-04-27 04:46 47.46746 -69.65555 34267 ft 474 kts 263°
2026-04-27 04:47 47.46231 -69.75177 34252 ft 472 kts 263°
2026-04-27 04:47 47.45702 -69.84900 34253 ft 472 kts 263°
2026-04-27 04:48 47.45440 -69.89657 33986 ft 468 kts 263°
2026-04-27 04:48 47.45174 -69.94450 33101 ft 469 kts 263°
2026-04-27 04:48 47.44905 -69.99268 32181 ft 472 kts 263°
2026-04-27 04:48 47.44633 -70.04107 31334 ft 473 kts 262°
2026-04-27 04:49 47.44357 -70.08963 30520 ft 474 kts 261°
2026-04-27 04:49 47.43759 -70.13721 29397 ft 471 kts 249°
2026-04-27 04:49 47.42366 -70.18079 28255 ft 468 kts 233°
2026-04-27 04:49 47.40406 -70.21890 27378 ft 465 kts 229°
2026-04-27 04:50 47.38390 -70.25604 26631 ft 460 kts 229°
2026-04-27 04:50 47.36378 -70.29232 25873 ft 456 kts 229°
2026-04-27 04:50 47.34337 -70.32864 25105 ft 460 kts 229°
2026-04-27 04:50 47.32280 -70.36496 24362 ft 461 kts 229°
2026-04-27 04:51 47.30228 -70.40103 23597 ft 456 kts 229°
2026-04-27 04:51 47.28219 -70.43627 22796 ft 453 kts 229°
2026-04-27 04:51 47.26200 -70.47164 22062 ft 448 kts 230°
2026-04-27 04:51 47.24207 -70.50653 21347 ft 443 kts 230°
2026-04-27 04:52 47.22232 -70.54105 20633 ft 439 kts 230°
2026-04-27 04:52 47.20269 -70.57531 19930 ft 436 kts 230°
2026-04-27 04:52 47.18320 -70.60928 19106 ft 435 kts 230°
2026-04-27 04:52 47.16365 -70.64330 18341 ft 433 kts 230°
2026-04-27 04:53 47.15082 -70.66563 17838 ft 430 kts 230°
2026-04-27 04:53 47.13154 -70.69912 17106 ft 427 kts 230°
2026-04-27 04:53 47.10636 -70.74282 16333 ft 418 kts 230°
2026-04-27 04:53 47.08808 -70.77447 16383 ft 397 kts 230°
2026-04-27 04:54 47.07053 -70.80487 16168 ft 384 kts 230°
2026-04-27 04:54 47.05427 -70.83559 15548 ft 383 kts 241°
2026-04-27 04:54 47.04644 -70.85871 15222 ft 381 kts 245°
2026-04-27 04:54 47.03481 -70.89300 14739 ft 368 kts 244°
2026-04-27 04:55 47.02354 -70.92594 14209 ft 355 kts 244°
2026-04-27 04:55 47.01266 -70.95784 13627 ft 345 kts 244°
2026-04-27 04:55 47.00204 -70.98891 13081 ft 335 kts 244°
2026-04-27 04:55 46.98835 -71.02896 12409 ft 322 kts 244°
2026-04-27 04:56 46.98175 -71.04825 12083 ft 316 kts 244°
2026-04-27 04:56 46.97201 -71.07666 11608 ft 307 kts 244°
2026-04-27 04:56 46.96255 -71.10426 11144 ft 300 kts 244°
2026-04-27 04:56 46.95329 -71.13125 10694 ft 293 kts 244°
2026-04-27 04:57 46.94422 -71.15762 10254 ft 287 kts 244°
2026-04-27 04:57 46.93544 -71.18314 9785 ft 281 kts 244°
2026-04-27 04:57 46.92672 -71.20846 9348 ft 275 kts 244°
2026-04-27 04:57 46.91821 -71.23316 8916 ft 269 kts 244°
2026-04-27 04:58 46.90977 -71.25760 8509 ft 269 kts 244°
2026-04-27 04:58 46.90136 -71.28196 8116 ft 268 kts 244°
2026-04-27 04:58 46.89291 -71.30641 7710 ft 271 kts 244°
2026-04-27 04:58 46.88437 -71.33111 7283 ft 274 kts 243°
2026-04-27 04:59 46.87573 -71.35603 6870 ft 277 kts 243°
2026-04-27 04:59 46.86700 -71.38123 6428 ft 280 kts 243°
2026-04-27 04:59 46.85815 -71.40676 5973 ft 282 kts 243°
2026-04-27 04:59 46.84923 -71.43245 5524 ft 285 kts 244°
2026-04-27 05:00 46.84026 -71.45828 5099 ft 286 kts 244°
2026-04-27 05:00 46.82890 -71.48168 4841 ft 281 kts 225°
2026-04-27 05:00 46.81502 -71.50109 4696 ft 272 kts 225°
2026-04-27 05:00 46.80172 -71.52008 4565 ft 262 kts 225°
2026-04-27 05:01 46.78990 -71.53869 4405 ft 245 kts 236°
2026-04-27 05:01 46.78098 -71.55922 4322 ft 232 kts 239°
2026-04-27 05:01 46.77268 -71.57852 4247 ft 221 kts 239°
2026-04-27 05:01 46.76454 -71.59728 4092 ft 215 kts 238°
2026-04-27 05:02 46.75595 -71.61440 3926 ft 202 kts 227°
2026-04-27 05:02 46.74636 -71.62830 3799 ft 189 kts 225°
2026-04-27 05:02 46.72765 -71.65473 3563 ft 189 kts 219°
2026-04-27 05:03 46.71566 -71.66160 3451 ft 186 kts 181°
2026-04-27 05:03 46.70339 -71.65711 3476 ft 185 kts 150°
2026-04-27 05:03 46.69343 -71.64502 3484 ft 189 kts 136°
2026-04-27 05:03 46.68378 -71.63166 3382 ft 193 kts 136°
2026-04-27 05:04 46.67415 -71.61811 3107 ft 190 kts 135°
2026-04-27 05:04 46.66587 -71.60352 2920 ft 187 kts 113°
2026-04-27 05:04 46.66453 -71.58538 2738 ft 185 kts 77°
2026-04-27 05:04 46.67044 -71.56906 2598 ft 184 kts 49°
2026-04-27 05:05 46.67923 -71.55561 2486 ft 183 kts 46°
2026-04-27 05:05 46.68809 -71.54252 2338 ft 174 kts 46°
2026-04-27 05:05 46.69625 -71.53055 2188 ft 163 kts 46°
2026-04-27 05:05 46.70419 -71.51898 2043 ft 161 kts 46°
2026-04-27 05:06 46.71211 -71.50750 1916 ft 160 kts 46°
2026-04-27 05:06 46.71992 -71.49623 1777 ft 152 kts 46°
2026-04-27 05:06 46.72718 -71.48569 1721 ft 144 kts 45°
2026-04-27 05:06 46.73430 -71.47547 1653 ft 144 kts 45°
2026-04-27 05:07 46.74137 -71.46532 1456 ft 142 kts 45°
2026-04-27 05:07 46.74836 -71.45526 1226 ft 141 kts 44°
2026-04-27 05:07 46.75529 -71.44530 995 ft 140 kts 44°
2026-04-27 05:07 46.76222 -71.43535 807 ft 139 kts 44°
2026-04-27 05:08 46.76910 -71.42544 670 ft 139 kts 44°
2026-04-27 05:08 46.77600 -71.41553 472 ft 141 kts 44°
2026-04-27 05:08 46.78311 -71.40538 290 ft 143 kts 43°
2026-04-27 05:08 46.78948 -71.39620 256 ft 102 kts 44°
2026-04-27 05:09 46.79310 -71.39100 255 ft 61 kts 45°
2026-04-27 05:09 46.79477 -71.38858 255 ft 12 kts 50°
2026-04-27 05:09 46.79495 -71.38737 255 ft 11 kts 107°
2026-04-27 05:09 46.79473 -71.38644 255 ft 11 kts 109°
2026-04-27 05:10 46.79431 -71.38585 255 ft 9 kts 162°
2026-04-27 05:10 46.79391 -71.38551 255 ft 7 kts 143°
2026-04-27 05:10 46.79346 -71.38506 255 ft 9 kts 131°
2026-04-27 05:10 46.79328 -71.38453 255 ft 3 kts 114°
2026-04-27 05:11 46.79322 -71.38435 255 ft 0 kts 114°